Vertical_Velocity
4 -9 -15 -5 -1 -2 1 7 1 1 -7 10 -1 -6 -5 -6 -3 -2 13 -2 1 -3 -2 -1 -0 -3 -3 -1 0 2 -4 -0 -1 -1 -2 -3 -4 -4 -3 -2 -3 1 -2 -1 -1 0 2 0 -3
-9 -17 -18 -5 1 -3 -3 2 1 2 -7 11 -3 0 0 19 -9 8 -13 2 5 -3 -2 -2 2 0 -1 -2 -1 2 -1 -1 0 -0 -3 -4 -3 -4 -2 -1 -2 1 1 0 -2 2 -0 -4 -3
0 12 1 -0 -2 -2 -5 1 2 8 7 -2 -6 -10 -4 12 6 -7 -4 1 -0 -5 -0 -2 -1 -1 -4 -3 -1 1 -0 1 0 -1 -2 -2 -3 -1 -1 -2 -2 -2 -1 1 -1 1 -0 -4 3
18 0 7 -0 0 7 -3 1 -1 6 15 -1 -1 1 14 5 -15 -16 9 -7 -8 -3 -0 -2 -1 -1 -1 -2 -2 -1 -2 -3 -3 -2 -0 -3 -1 -2 -2 -2 -1 1 0 0 -2 1 0 -2 0
7 1 -0 1 3 4 2 4 3 1 3 6 -1 21 4 5 5 17 -1 -2 -4 -1 -2 -3 -2 -0 -1 -2 -1 -3 -2 -2 -3 -3 -3 -2 -0 -0 -1 -1 -0 -0 -1 -2 -2 -3 -2 -1 -1
3 3 2 -0 5 3 3 -1 -3 -3 4 10 -5 -6 6 -5 18 2 -1 -2 1 -4 -2 -3 -0 -2 0 -2 0 -2 -3 -2 -2 -0 -0 -0 2 -1 1 1 1 -2 -1 0 -1 1 -1 3 -1
0 2 0 0 2 1 -5 2 -1 -1 -1 12 -7 -8 6 4 7 11 -4 -7 -3 -1 1 -3 -1 -2 -2 -1 1 -0 1 1 2 1 -0 -0 -0 -0 -2 -0 -1 0 -3 1 1 -1 0 0 -1
8 5 -0 1 0 2 1 -0 -0 -12 15 4 -18 -1 7 -6 22 2 -4 -6 2 1 5 -4 -3 0 -3 -3 -2 -2 -0 0 -1 0 2 -1 -1 -2 1 1 -2 -1 -0 0 -2 -0 -0 -1 -2
4 5 0 3 -2 3 4 -3 3 5 -10 4 9 -14 -16 2 27 6 8 6 1 -1 -2 -2 -5 -4 -0 -1 -1 -0 -2 -2 0 0 -0 1 -3 -4 -0 1 5 1 -1 0 -3 -3 -2 -1 -1
11 -3 2 0 -0 -1 1 -3 4 6 3 12 6 11 -3 6 5 -6 -0 -5 4 1 -6 0 -1 -4 -5 -2 -0 0 -2 1 0 0 -4 -4 -0 0 -0 -4 1 0 -3 1 -1 3 0 0 -5
11 -0 3 8 -3 1 3 -2 -20 -2 8 -2 -9 -4 0 -1 13 -4 -2 2 -7 3 -3 -2 -6 -5 -6 -2 -3 -3 -2 -1 1 -3 2 3 2 -1 2 3 -5 2 3 1 -7 2 5 -5 10
-10 2 -0 12 18 -7 -1 3 -1 -2 2 -7 -6 -9 -4 -3 8 -3 3 1 -4 -5 4 6 1 -5 -0 4 -3 -4 -3 -2 -4 -4 -0 1 1 -2 1 4 -7 -2 4 0 2 -3 -2 -3 5
-6 4 2 -0 1 1 15 2 -8 8 4 1 -4 2 -4 -2 3 17 -2 8 2 7 -4 8 -1 -3 2 4 -7 -3 -3 -0 2 -2 7 3 -0 4 1 3 -9 -1 6 -1 -3 -4 -2 -1 8
-10 -9 -0 6 -7 16 -25 -2 -26 17 3 3 -4 -0 -4 -3 1 13 2 7 2 4 -0 -2 -5 -1 1 3 8 2 2 1 -0 -6 -3 -2 0 -3 9 -8 3 -2 1 -4 0 1 2 3 -1
-1 -3 2 -0 4 2 -1 -1 2 3 0 -0 -0 1 -0 -4 5 2 3 -2 -3 -0 -2 -4 1 -6 1 -6 1 -2 6 3 0 -2 -6 -1 2 -8 -4 5 3 5 -6 -2 7 4 1 1 6
-1 -3 1 0 -0 -1 -9 -0 8 4 -7 1 0 3 1 2 4 -4 4 1 6 -1 -5 -2 -1 1 -5 -3 1 5 5 -2 1 1 5 0 -4 -1 -2 2 3 4 -1 -2 1 -2 -1 0 1
2 -1 1 3 -1 -1 -6 -1 5 2 -1 2 1 3 -1 6 8 -1 2 -0 8 -1 -3 -4 -7 -6 -7 -0 1 -1 7 -0 1 4 1 -1 0 -4 -3 -7 -4 4 2 2 -0 -3 -2 -2 -2
-2 2 1 -2 -5 1 0 -1 3 3 -2 -2 -2 1 -1 3 -2 -4 -2 -2 6 3 1 1 -1 -2 -4 -6 -1 -1 11 -1 4 -0 -4 3 -2 -3 -4 -1 -3 1 -0 -1 5 3 2 4 -16
2 -1 -1 2 -1 -2 -3 -0 -2 1 6 4 2 1 -0 -1 -2 -5 -4 -4 3 4 0 -0 -6 2 -2 -4 -6 -2 -4 5 3 -5 2 2 0 -2 -2 -4 -1 1 -2 -1 1 -1 -1 -2 -6
-0 1 1 3 3 6 1 -1 -2 1 -4 -10 -6 2 -2 2 4 -1 -2 -2 2 -2 1 0 -0 0 0 1 -3 -3 -2 -3 2 0 0 3 -2 -4 -1 0 1 1 -2 -1 -2 2 0 -2 -1
-2 0 0 -2 -0 -1 0 -2 5 3 6 8 8 -1 3 -10 -5 -3 0 -4 1 -3 -8 -5 -4 -6 -4 -1 -2 -2 4 9 6 -1 -1 -3 -0 -1 0 -1 3 2 2 2 2 1 1 1 1
1 0 1 0 -1 -5 -10 -6 1 1 1 3 3 2 -1 -2 7 1 -3 -2 -1 -6 -2 -3 -4 -3 -1 -1 -5 -6 -2 1 -2 -7 -4 -5 -1 -0 2 -0 -2 -2 4 -0 3 5 1 2 2
-5 0 2 1 1 0 -2 -9 -14 -1 3 -0 1 -0 -1 -5 -4 -6 -7 -8 -4 -1 -6 -2 -1 -4 -1 -4 -3 -1 -3 -2 4 -3 1 -5 2 1 -1 -3 -0 -1 -0 2 1 1 2 2 3
1 -2 -2 0 -0 -5 -5 -10 -6 -1 -4 0 0 17 21 -7 -1 4 2 3 -7 2 -0 -3 -3 -5 -2 -2 -0 -2 0 -2 -6 5 4 -11 -8 7 0 1 -2 -3 -3 3 0 1 -1 3 2
4 1 -5 -7 -4 -8 0 -8 -12 1 1 1 2 -16 -9 48 44 19 -3 -4 2 -7 -5 -2 -2 -4 -2 -1 -0 -1 -0 1 -0 -2 0 5 8 -12 -11 3 4 -4 1 -6 4 -1 -1 -0 -1
-2 -3 -7 -1 -3 -5 -1 -2 -4 -0 4 8 -3 -14 -30 54 -46 1 5 8 5 4 5 -4 -3 -2 -2 -1 -2 -3 0 -2 -2 5 0 -6 -2 -0 2 0 -15 3 4 1 -3 3 -2 0 2
-14 -3 -7 -1 -2 -7 -2 3 -8 -0 1 2 8 18 17 -4 22 2 -39 14 1 3 -3 -4 -1 -1 -1 -4 -1 -0 5 2 -2 -1 3 6 11 11 1 -10 -7 -10 6 -2 -5 4 1 -3 -1
-1 -7 -19 -7 -2 1 0 0 -3 1 2 2 -0 1 0 -1 2 30 21 42 75 67 6 8 0 -2 1 1 0 -0 -2 3 4 3 1 -0 -0 0 2 -3 -6 -13 5 -2 -7 2 2 -1 1
-4 -3 -1 -9 -5 -6 -2 -4 -4 -1 -0 0 3 -1 -0 -2 4 4 7 1 -114 -36 65 32 11 -2 -3 1 -2 -3 -2 -5 -1 2 1 5 3 5 13 4 7 7 2 -0 -2 -1 0 2 -1
0 -0 -1 -7 -4 -1 -6 -8 -0 1 -0 -4 1 -2 -2 -5 0 10 -9 -4 -36 14 45 -125 -104 7 -3 1 0 -0 1 -1 -2 -5 5 5 -1 -4 33 25 22 24 30 12 11 -2 10 4 0
Height
1530 1523 1523 1523 1532 1528 1521 1523 1506 1511 1518 1520 1516 1517 1525 1528 1535 1557 1555 1558 1561 1564 1567 1569 1570 1571 1573 1574 1575 1576 1576 1576 1577 1578 1578 1579 1580 1580 1582 1582 1583 1584 1585 1587 1588 1589 1591 1592 1593
1534 1532 1528 1530 1536 1540 1539 1512 1517 1519 1522 1522 1518 1523 1530 1536 1537 1549 1555 1560 1562 1565 1568 1569 1571 1572 1573 1575 1577 1578 1577 1578 1579 1579 1580 1581 1582 1582 1583 1584 1585 1586 1588 1590 1590 1592 1594 1595 1596
1534 1534 1536 1534 1537 1546 1547 1515 1514 1518 1523 1521 1524 1530 1534 1542 1547 1549 1556 1560 1563 1567 1569 1571 1572 1573 1574 1576 1578 1579 1579 1580 1581 1581 1582 1582 1584 1584 1585 1585 1587 1588 1590 1592 1593 1595 1596 1598 1599
1535 1533 1530 1534 1526 1515 1516 1514 1511 1515 1522 1522 1526 1535 1542 1544 1546 1551 1557 1560 1564 1568 1571 1572 1573 1574 1576 1577 1579 1580 1581 1582 1583 1583 1584 1585 1585 1586 1587 1588 1589 1591 1592 1594 1596 1597 1599 1600 1601
1539 1537 1535 1527 1521 1512 1513 1513 1513 1522 1524 1529 1530 1541 1546 1550 1552 1556 1557 1560 1564 1569 1571 1572 1574 1575 1577 1578 1579 1581 1582 1583 1585 1585 1586 1587 1588 1589 1590 1591 1592 1594 1595 1596 1597 1598 1599 1601 1602
1531 1531 1539 1531 1519 1512 1515 1514 1513 1521 1530 1535 1537 1542 1550 1553 1556 1556 1558 1563 1567 1569 1571 1573 1575 1576 1577 1578 1579 1581 1583 1584 1586 1587 1588 1589 1590 1591 1592 1594 1595 1597 1597 1598 1598 1600 1601 1603 1606
1539 1527 1521 1519 1519 1530 1527 1517 1516 1520 1529 1535 1539 1543 1553 1555 1557 1558 1562 1566 1569 1570 1572 1574 1576 1577 1579 1580 1580 1582 1584 1586 1587 1589 1591 1592 1592 1593 1595 1597 1598 1599 1599 1600 1602 1603 1604 1606 1608
1529 1526 1516 1514 1521 1531 1519 1518 1521 1523 1531 1537 1540 1548 1552 1554 1558 1560 1562 1565 1569 1571 1573 1576 1577 1579 1580 1581 1582 1584 1586 1588 1590 1591 1593 1595 1596 1597 1598 1599 1600 1601 1602 1603 1605 1605 1606 1608 1610
1531 1525 1524 1515 1516 1524 1520 1519 1523 1527 1534 1538 1539 1546 1551 1554 1559 1562 1565 1568 1570 1572 1575 1577 1579 1580 1582 1583 1584 1586 1588 1589 1592 1594 1596 1597 1598 1599 1600 1602 1602 1603 1604 1606 1607 1607 1607 1610 1613
1520 1521 1512 1504 1511 1519 1516 1518 1528 1529 1533 1542 1546 1552 1554 1556 1559 1563 1566 1568 1569 1571 1575 1578 1579 1582 1583 1584 1586 1587 1589 1592 1594 1596 1597 1597 1598 1601 1602 1604 1605 1606 1606 1608 1608 1608 1609 1611 1613
1507 1519 1511 1510 1512 1513 1516 1523 1526 1533 1536 1539 1545 1551 1554 1557 1560 1562 1565 1567 1570 1573 1575 1578 1580 1582 1584 1586 1587 1589 1591 1593 1596 1597 1597 1598 1599 1602 1604 1605 1607 1608 1608 1610 1609 1610 1609 1611 1613
1513 1513 1513 1511 1518 1519 1522 1524 1528 1532 1535 1540 1545 1551 1554 1557 1560 1562 1565 1569 1571 1573 1577 1579 1581 1582 1584 1587 1589 1590 1592 1595 1597 1597 1598 1600 1600 1603 1604 1606 1608 1610 1611 1611 1611 1610 1611 1612 1613
1518 1521 1521 1516 1517 1528 1523 1523 1530 1535 1538 1542 1548 1552 1555 1556 1559 1561 1564 1567 1571 1573 1576 1579 1581 1583 1586 1588 1588 1591 1593 1594 1597 1598 1600 1600 1601 1603 1605 1606 1609 1610 1611 1612 1613 1612 1612 1611 1611
1512 1532 1525 1515 1521 1529 1545 1529 1526 1538 1539 1544 1549 1553 1555 1557 1559 1562 1564 1567 1569 1573 1575 1577 1580 1583 1586 1589 1590 1591 1594 1596 1598 1599 1600 1601 1602 1604 1605 1607 1610 1609 1610 1611 1612 1612 1613 1612 1612
1514 1529 1525 1524 1523 1530 1536 1542 1531 1535 1540 1544 1549 1551 1554 1556 1559 1562 1563 1566 1569 1571 1574 1577 1580 1582 1585 1586 1589 1591 1593 1594 1596 1598 1600 1601 1602 1603 1605 1608 1609 1609 1608 1609 1612 1612 1611 1613 1613
1517 1522 1535 1529 1527 1523 1526 1546 1533 1534 1538 1543 1547 1549 1552 1555 1558 1562 1564 1567 1569 1570 1572 1576 1579 1581 1583 1586 1588 1590 1592 1593 1595 1597 1599 1600 1601 1602 1604 1606 1607 1609 1609 1611 1611 1610 1610 1611 1612
1515 1533 1529 1535 1527 1522 1526 1539 1530 1533 1536 1540 1544 1548 1551 1554 1557 1560 1564 1566 1569 1568 1571 1574 1576 1579 1582 1584 1588 1590 1591 1593 1595 1596 1598 1598 1599 1601 1602 1603 1604 1606 1608 1609 1609 1608 1609 1610 1610
1522 1523 1526 1531 1527 1522 1531 1532 1526 1530 1532 1535 1541 1546 1549 1553 1555 1558 1562 1565 1568 1568 1571 1573 1575 1578 1580 1583 1587 1588 1590 1591 1593 1594 1595 1597 1597 1598 1600 1601 1602 1603 1605 1606 1607 1606 1607 1608 1604
1500 1502 1512 1515 1517 1520 1529 1524 1523 1524 1528 1532 1535 1541 1545 1549 1553 1556 1560 1564 1566 1567 1569 1572 1574 1577 1579 1581 1584 1586 1588 1590 1592 1594 1595 1596 1597 1597 1598 1599 1599 1600 1601 1602 1603 1604 1605 1605 1604
1502 1509 1514 1507 1511 1515 1516 1524 1517 1519 1522 1524 1528 1534 1540 1546 1550 1553 1556 1560 1562 1565 1568 1571 1574 1576 1578 1581 1583 1585 1587 1590 1592 1593 1595 1595 1596 1596 1596 1597 1597 1598 1597 1597 1598 1600 1601 1602 1602
1507 1512 1512 1512 1503 1503 1509 1521 1521 1515 1518 1522 1523 1526 1532 1536 1542 1547 1551 1555 1558 1561 1564 1567 1571 1574 1576 1579 1582 1584 1587 1589 1590 1592 1593 1593 1594 1594 1595 1595 1596 1597 1596 1595 1595 1595 1597 1598 1599
1518 1497 1500 1504 1515 1541 1506 1564 1521 1515 1516 1517 1519 1523 1526 1529 1534 1538 1543 1550 1553 1555 1559 1563 1567 1570 1573 1576 1578 1580 1583 1586 1587 1589 1590 1592 1593 1594 1595 1595 1596 1596 1597 1597 1596 1595 1593 1594 1595
1509 1498 1503 1504 1515 1518 1519 1545 1526 1512 1521 1516 1513 1518 1521 1524 1526 1530 1534 1540 1546 1549 1552 1558 1562 1565 1569 1572 1574 1577 1580 1584 1585 1585 1585 1586 1588 1591 1593 1594 1595 1595 1596 1597 1597 1595 1594 1592 1592
1495 1501 1505 1507 1521 1555 1524 1532 1536 1520 1516 1515 1511 1514 1510 1520 1524 1526 1531 1536 1540 1543 1547 1552 1556 1560 1564 1567 1570 1573 1577 1580 1581 1582 1583 1585 1586 1589 1591 1591 1592 1592 1593 1594 1594 1594 1593 1592 1589
1499 1515 1557 1558 1556 1553 1513 1532 1533 1505 1503 1507 1516 1507 1508 1517 1516 1528 1528 1530 1531 1533 1538 1544 1551 1555 1559 1563 1566 1570 1573 1576 1578 1578 1580 1583 1583 1585 1585 1585 1586 1587 1587 1590 1592 1590 1589 1590 1587
1507 1515 1552 1557 1555 1543 1516 1544 1524 1501 1503 1509 1510 1511 1514 1524 1508 1525 1529 1528 1526 1530 1529 1534 1543 1551 1555 1559 1562 1565 1569 1572 1574 1576 1578 1580 1581 1582 1581 1581 1583 1585 1585 1586 1587 1586 1585 1586 1584
1505 1519 1496 1520 1511 1541 1530 1516 1507 1501 1504 1508 1514 1520 1515 1511 1502 1506 1515 1516 1527 1530 1534 1535 1539 1545 1550 1554 1557 1560 1564 1567 1569 1572 1574 1576 1578 1578 1578 1578 1579 1577 1582 1582 1581 1582 1580 1581 1580
1494 1493 1526 1525 1544 1553 1543 1533 1539 1514 1513 1509 1512 1514 1513 1512 1512 1516 1504 1511 1528 1535 1538 1539 1542 1548 1548 1550 1552 1554 1557 1561 1564 1567 1569 1571 1573 1574 1573 1571 1571 1572 1576 1576 1577 1578 1577 1577 1576
1505 1510 1501 1510 1519 1556 1566 1550 1511 1509 1510 1512 1514 1515 1515 1515 1517 1516 1513 1501 1533 1538 1539 1535 1534 1545 1550 1549 1549 1550 1551 1556 1560 1564 1565 1567 1568 1568 1568 1566 1567 1568 1570 1572 1573 1572 1571 1572 1569
1487 1494 1499 1534 1523 1522 1541 1547 1502 1505 1509 1512 1516 1517 1518 1518 1519 1523 1521 1523 1523 1525 1544 1527 1538 1542 1545 1546 1546 1546 1548 1551 1556 1559 1561 1562 1564 1565 1561 1555 1565 1570 1567 1570 1568 1569 1570 1569 1564